User: anonymous   Login
Location: Morehead State University
(38.1872°N, 83.4339°W)
Time: 01:49:55
(UTC-04:00)
Language:

Okean 2 - Orbit

View from above orbital plane
View from above orbital plane
View from above satellite
View from above satellite

Ground track
Ground track

The orbit data is extracted from the following two-line orbital elements,

1 20510U 90018A   16151.67810391  .00000463  00000-0  36403-4 0  9998
2 20510  82.5152 178.6378 0012171 186.1698 313.2037 14.98548234424157
Epoch (UTC): 30 May 2016 16:16:28
Eccentricity: 0.0012171
inclination: 82.5152°
perigee height: 563 km
apogee height: 580 km
right ascension of ascending node: 178.6378°
argument of perigee: 186.1698°
revolutions per day: 14.98548234
mean anomaly at epoch: 313.2037°
orbit number at epoch: 42415

The dashed part of the orbit path shows where the satellite is in the earth's shadow,  

DLR